Leadville, CO

7:57 PM MST on November 20, 2017 (GMT -0700)
Lake County

Weather History for KLXV - November, 2013

Change the Weather History Date:

Friday, November 29, 2013

  Actual Average Record
Temperature  
Mean Temperature 23 °F -  
Max Temperature 36 °F 31 °F 46 °F (1999)
Min Temperature 10 °F 7 °F -20 °F (1979)
Degree Days  
Heating Degree Days 42 46  
Month to date heating degree days 1149 1169  
Since 1 July heating degree days 3184 3358  
Cooling Degree Days 0 0  
Month to date cooling degree days 0 0  
Year to date cooling degree days 0 0  
Moisture  
Dew Point 8 °F    
Average Humidity 56    
Maximum Humidity 80    
Minimum Humidity 32    
Precipitation  
Precipitation 0.00 in 0.02 in 0.07 in (1988)
Month to date precipitation 1.07 0.74  
Year to date precipitation 16.94 11.68  
Sea Level Pressure  
Sea Level Pressure 30.23 in    
Wind  
Wind Speed 7 mph (North)    
Max Wind Speed 18 mph    
Max Gust Speed 22 mph    
Visibility 10 miles    
Events      
T = Trace of Precipitation, MM = Missing Value Source: NWS Daily Summary

Daily Weather History Graph

Daily Weather History Graph

Search for Another Location

Airport or City:

Trip Planner

Search our weather history database for the weather conditions in past years. The results will help you decide how hot, cold, wet, or windy it might be!

Date:

Astronomy

Nov. 29, 2013 Rise Set
Actual Time 7:04 AM MST 4:43 PM MST
Civil Twilight 6:34 AM MST 5:12 PM MST
Nautical Twilight 6:01 AM MST 5:45 PM MST
Astronomical Twilight 5:29 AM MST 6:18 PM MST
Moon 3:13 AM MST (11/29) 2:28 PM MST (11/29)
Length of Visible Light 10h 38m
Length of Day
9h 39m
Waning Crescent, 13% of the Moon is Illuminated
Nov 29
Waning Crescent
Dec 2
New
Dec 9
First Quarter
Dec 17
Full
Dec 25
Last Quarter

Hourly Weather History & Observations

Time (MST) Temp. Windchill Dew Point Humidity Pressure Visibility Wind Dir Wind Speed Gust Speed Precip Events Conditions
12:53 AM 10.0 °F - 3.9 °F 76% 30.19 in 10.0 mi Calm Calm - N/A   Clear
1:53 AM 12.9 °F 2.6 °F 5.0 °F 71% 30.15 in 10.0 mi NNE 6.9 mph - N/A   Clear
2:53 AM 14.0 °F 3.9 °F 5.0 °F 67% 30.16 in 10.0 mi NE 6.9 mph - N/A   Clear
3:53 AM 14.0 °F - 3.9 °F 64% 30.19 in 10.0 mi Calm Calm - N/A   Clear
4:53 AM 14.0 °F 8.2 °F 5.0 °F 67% 30.23 in 10.0 mi North 3.5 mph - N/A   Clear
5:53 AM 16.0 °F 3.6 °F 5.0 °F 62% 30.20 in 10.0 mi NE 10.4 mph - N/A   Clear
6:53 AM 17.1 °F 10.0 °F 6.1 °F 62% 30.26 in 10.0 mi NNE 4.6 mph - N/A   Clear
7:53 AM 21.9 °F 17.2 °F 7.0 °F 53% 30.23 in 10.0 mi ENE 3.5 mph - N/A   Clear
8:53 AM 25.0 °F 16.3 °F 7.0 °F 46% 30.23 in 10.0 mi North 8.1 mph - N/A   Clear
9:53 AM 30.9 °F 21.7 °F 9.0 °F 40% 30.26 in 10.0 mi North 11.5 mph - N/A   Clear
10:53 AM 33.1 °F 23.4 °F 10.0 °F 38% 30.20 in 10.0 mi NW 13.8 mph 17.3 mph N/A   Clear
11:53 AM 35.1 °F 29.3 °F 10.0 °F 35% 30.20 in 10.0 mi Variable 6.9 mph 20.7 mph N/A   Clear
12:53 PM 34.0 °F 25.5 °F 10.0 °F 37% 30.23 in 10.0 mi NNW 11.5 mph - N/A   Clear
1:53 PM 35.1 °F 28.6 °F 9.0 °F 34% 30.20 in 10.0 mi NNW 8.1 mph 18.4 mph N/A   Clear
2:53 PM 34.0 °F 25.5 °F 10.9 °F 38% 30.19 in 10.0 mi WNW 11.5 mph - N/A   Clear
3:53 PM 32.0 °F 23.6 °F 10.9 °F 42% 30.22 in 10.0 mi WNW 10.4 mph - N/A   Clear
4:53 PM 28.0 °F 24.2 °F 10.9 °F 49% 30.26 in 10.0 mi North 3.5 mph - N/A   Clear
5:53 PM 24.1 °F 15.2 °F 10.9 °F 57% 30.28 in 10.0 mi North 8.1 mph - N/A   Clear
6:53 PM 19.0 °F 11.1 °F 9.0 °F 65% 30.32 in 10.0 mi NNE 5.8 mph - N/A   Clear
7:53 PM 19.0 °F 10.0 °F 9.0 °F 65% 30.29 in 10.0 mi NE 6.9 mph - N/A   Clear
8:53 PM 15.1 °F 5.2 °F 8.1 °F 74% 30.31 in 10.0 mi NNE 6.9 mph - N/A   Clear
9:53 PM 14.0 °F 3.9 °F 8.1 °F 77% 30.26 in 10.0 mi NNE 6.9 mph - N/A   Clear
10:53 PM 14.0 °F 3.9 °F 7.0 °F 74% 30.25 in 10.0 mi NE 6.9 mph - N/A   Clear
11:53 PM 12.9 °F 5.2 °F 5.0 °F 71% 30.26 in 10.0 mi NW 4.6 mph - N/A   Clear